www.pogodaiklimat.ru

Погода и климат >> Архив погоды >> Испания >> Оренсе


ПОГОДА в Оренсе

  • Прогноз погоды в Оренсе
  • Монитор погоды в Оренсе

АРХИВ ПОГОДЫ в Оренсе

Время (UTC), дата Ветер
(напр.,м/с)
 
Видим.   Явления Облачность Т
(С)
Тd
(С)
f
(%)
Тe
(С)
Тes
(С)
Комфортность P
(гПа)
Po
(гПа)
Тmin
(С)
Tmax
(С)
R
(мм)
R24
(мм)
S
(см)
19 16.09 ЮЗ 1 20 км н/о +21.1 +17.9 82 +25 +25 комфорт 1016.5 999.5
20 16.09 В 1 20 км н/о +20.3 +17.7 85 +25 +25 комфорт 1017.0 999.9
21 16.09 В 1 20 км н/о +19.7 +17.1 85 +23 +23 комфорт 1017.2 1000.1
22 16.09 Ю 1 17 км н/о +18.9 +16.7 87 +22 +22 комфорт 1017.5 1000.3
23 16.09 В 1 20 км н/о +18.2 +16.4 89 +20 +20 1017.6 1000.4
00 17.09 З 1 20 км н/о +17.7 +16.0 90 +19 +19 1017.5 1000.2
01 17.09 ЮВ 1 20 км н/о +17.4 +15.9 91 +19 +19 1017.4 1000.1
02 17.09 штиль 0 19 км н/о +17.3 +16.0 92 +17 +17 1017.2 999.9
03 17.09 В 1 20 км н/о +17.1 +15.6 91 +19 +19 1016.8 999.5
04 17.09 ЮВ 1 20 км н/о +16.9 +15.2 90 +18 +18 1016.6 999.3
05 17.09 ЮЗ 1 18 км н/о +16.7 +15.6 93 +18 +18 1016.6 999.3
06 17.09 ЮЗ 1 19 км 4/1 300 м
[Sc Ac cast]
+16.6 +15.3 92 +18 +18 1016.8 999.5 +16.5
07 17.09 ЮЗ 1 16 км н/о +16.3 +15.0 92 +17 +17 1017.3 999.9
08 17.09 З 1 19 км н/о +16.7 +15.4 92 +18 +18 1017.3 1000.0
09 17.09 Ю 1 20 км 6/1 300 м
[Sc Ac lent Ci sp]
+19.4 +17.0 86 +23 +26 комфорт 1017.2 1000.0
10 17.09 ЮЗ 1 19 км н/о +21.9 +17.1 74 +26 +26 душно 1016.5 999.5
11 17.09 Ю 1 20 км н/о +25.8 +16.9 58 +30 +30 душно 1015.7 998.9
12 17.09 З 2 20 км 8/3 300 м
[Cu med, cong Ac lent Cs]
+28.2 +15.5 46 +31 +37 душно 1014.8 998.2
13 17.09 С 1 20 км н/о +29.0 +15.9 45 +32 +32 душно 1014.0 997.4
14 17.09 С 1 20 км н/о +29.1 +15.6 44 +32 +32 душно 1013.5 996.9
15 17.09 С 1 19 км н/о +28.9 +15.8 45 +32 +32 душно 1013.2 996.6
16 17.09 СВ 1 20 км н/о +28.3 +15.2 45 +31 +31 душно 1013.0 996.4 0.0
17 17.09 Ю 2 20 км н/о +25.5 +13.7 48 +28 +28 жарко 1014.3 997.5
18 17.09 Ю 3 6000 м дождь н/о +21.1 +16.5 75 +25 +25 комфорт 1016.3 999.2 +29.2 0.8
19 17.09 ЮВ 2 4800 м дождь н/о +18.6 +16.6 88 +20 +20 1016.6 999.4 13
20 17.09 С 1 н/о дождь н/о +18.2 +16.0 87 +20 +20 1016.9 999.7 2
21 17.09 З 1 12 км дождь н/о +18.0 +16.0 88 +19 +19 1015.9 998.7 16
22 17.09 С 1 20 км слаб. дождь н/о +17.5 +16.0 91 +19 +19 1015.9 998.6 0.4
23 17.09 СВ 1 20 км в посл. час дождь н/о +17.3 +15.6 90 +19 +19 1015.7 998.4 0.0
00 18.09 В 1 19 км дымка н/о +16.8 +15.5 92 +18 +18 1016.1 998.8 0.4
01 18.09 В 1 15 км н/о +16.7 +15.6 93 +18 +18 1016.2 998.9
02 18.09 В 1 12 км н/о +16.2 +15.2 94 +18 +18 1015.7 998.4
03 18.09 ЮВ 1 12 км н/о +15.9 +15.1 95 +17 +17 1015.8 998.4
04 18.09 ЮВ 1 9000 м н/о +15.8 +14.8 94 +16 +16 1015.8 998.4
05 18.09 ЮВ 1 7000 м н/о +15.7 +14.7 94 +16 +16 1016.0 998.6
06 18.09 ЮЗ 1 11 км 9/9 200 м
[St]
+15.6 +14.5 93 +17 +17 1016.4 999.0 +15.5
07 18.09 ЮЗ 1 8000 м н/о +15.6 +14.6 94 +16 +16 1016.9 999.5
08 18.09 ЮЗ 1 10 км н/о +15.9 +14.6 92 +17 +17 1017.2 999.8
09 18.09 ЮВ 1 10 км 9/8 200 м
[St Ac trans]
+16.3 +14.7 90 +17 +18 1017.5 1000.1
12 18.09 З 2 20 км 6/1 300 м
[Cu med, cong Ac trans Ci sp]
+24.7 +15.6 57 +28 +36 душно 1015.8 999.0
13 18.09 З 1 20 км н/о +27.5 +16.1 50 +31 +31 душно 1015.2 998.5
14 18.09 З 2 20 км н/о +29.2 +12.2 35 +30 +30 жарко 1014.3 997.7
15 18.09 С 1 20 км н/о +29.9 +11.4 32 +30 +30 жарко 1013.9 997.3
16 18.09 З 1 20 км н/о +30.9 +13.2 34 +32 +32 жарко 1013.5 997.0
17 18.09 ЮЗ 2 20 км н/о +30.9 +13.2 34 +32 +32 жарко 1013.4 996.9
18 18.09 С 1 20 км н/о +29.3 +13.5 38 +31 +31 жарко 1013.6 997.0 +31.2
19 18.09 З 1 20 км н/о +26.2 +15.6 52 +29 +29 жарко 1014.3 997.6
20 18.09 ЮЗ 1 20 км н/о +22.5 +15.3 64 +26 +26 жарко 1015.5 998.5
21 18.09 З 1 20 км н/о +20.6 +15.4 72 +25 +25 комфорт 1016.0 998.9
22 18.09 ЮВ 1 20 км н/о +19.2 +15.3 78 +22 +22 комфорт 1016.5 999.3
23 18.09 З 1 20 км н/о +18.2 +15.1 82 +20 +20 1016.5 999.3
00 19.09 ЮВ 1 20 км н/о +17.7 +14.8 83 +19 +19 1016.8 999.5
01 19.09 ЮВ 1 17 км н/о +16.9 +14.5 86 +18 +18 1017.0 999.7
02 19.09 ЮЗ 1 18 км н/о +16.2 +14.0 87 +18 +18 1017.0 999.6
03 19.09 ЮЗ 1 17 км н/о +15.5 +13.7 89 +17 +17 1016.8 999.4
04 19.09 ЮВ 1 15 км н/о +15.0 +13.4 90 +15 +15 1016.8 999.4
05 19.09 ЮЗ 1 13 км н/о +14.6 +13.1 91 +16 +16 1016.9 999.4
06 19.09 Ю 1 16 км 1/1 200 м
[St]
+14.3 +12.7 90 +15 +15 1016.9 999.4 +14.3
07 19.09 З 1 16 км н/о +14.3 +12.8 91 +15 +15 1017.2 999.7
08 19.09 Ю 1 17 км н/о +15.5 +14.0 91 +17 +17 1017.4 1000.0
09 19.09 ЮЗ 1 10 км 5/5 200 м
[St]
+17.4 +15.4 88 +18 +21 1017.3 1000.0
10 19.09 Ю 1 15 км н/о +20.9 +16.3 75 +25 +25 комфорт 1016.6 999.5
11 19.09 Ю 2 19 км н/о +24.7 +16.4 60 +28 +28 душно 1015.7 998.9
12 19.09 З 2 20 км 1/1 300 м
[Cu med, cong Ac lent Ci fib]
+27.8 +15.5 47 +31 +42 душно 1014.6 997.9
13 19.09 З 2 20 км н/о +30.0 +15.3 41 +33 +33 душно 1013.3 996.8
14 19.09 С 2 17 км н/о +31.7 +14.4 35 +33 +33 жарко 1012.6 996.2
15 19.09 В 3 7000 м дождь н/о +27.6 +16.2 50 +31 +31 душно 1012.5 995.9 0.4
16 19.09 Ю 2 20 км слаб. дождь н/о +23.5 +17.5 69 +27 +27 душно 1013.0 996.1 1
17 19.09 ЮЗ 1 20 км в посл. час дождь н/о +23.3 +19.7 80 +30 +30 очень
душно
1012.9 996.1 0.0
18 19.09 ЮВ 1 20 км дымка н/о +24.6 +18.5 69 +29 +29 душно 1012.8 996.0 +32.0 1
19 19.09 В 1 20 км н/о +23.3 +19.0 77 +30 +30 очень
душно
1013.3 996.4
20 19.09 В 1 18 км н/о +21.6 +18.0 80 +26 +26 душно 1013.8 996.8
21 19.09 ЮЗ 1 16 км н/о +20.1 +17.5 85 +25 +25 комфорт 1014.2 997.1
22 19.09 В 1 18 км н/о +19.1 +16.9 87 +22 +22 комфорт 1014.4 997.3
23 19.09 Ю 1 18 км н/о +18.3 +16.3 88 +20 +20 1014.3 997.1
00 20.09 З 1 17 км н/о +17.5 +15.7 89 +19 +19 1014.0 996.8
01 20.09 ЮЗ 1 13 км н/о +16.9 +15.2 90 +18 +18 1014.1 996.8
02 20.09 Ю 1 17 км н/о +16.3 +14.8 91 +18 +18 1013.7 996.4
03 20.09 Ю 1 14 км н/о +15.7 +14.2 91 +17 +17 1013.2 995.9
04 20.09 ЮВ 1 14 км н/о +15.2 +13.9 92 +16 +16 1013.1 995.7
05 20.09 З 1 14 км н/о +15.0 +13.9 93 +15 +15 1013.1 995.7
06 20.09 ЮЗ 1 15 км 10/10 200 м
[St]
+15.5 +14.4 93 +17 +17 1013.0 995.7 +15.0
07 20.09 ЮЗ 1 14 км н/о +15.8 +14.7 93 +16 +16 1012.9 995.6
08 20.09 Ю 1 9000 м н/о +16.0 +14.9 93 +17 +17 1013.2 995.9
09 20.09 ЮЗ 1 8000 м дымка 10/10 100 м
[St]
+17.0 +15.5 91 +18 +18 1013.1 995.9
10 20.09 З 1 13 км н/о +18.0 +15.3 84 +19 +19 1012.8 995.6
11 20.09 СВ 2 18 км н/о +20.6 +16.2 76 +25 +25 комфорт 1012.0 995.0
12 20.09 С 2 15 км 6/1 300 м
[Cu med, cong Ac As Ci sp]
+22.9 +16.2 66 +27 +36 душно 1011.3 994.4
13 20.09 С 2 20 км н/о +24.8 +16.5 60 +28 +28 жарко 1010.4 993.7
14 20.09 ЮЗ 2 20 км н/о +26.0 +16.3 55 +29 +29 душно 1009.9 993.2 0.0
15 20.09 З 2 20 км н/о +28.1 +16.7 50 +32 +32 душно 1008.7 992.2 0.0
16 20.09 З 3 20 км н/о +27.0 +15.1 48 +30 +30 душно 1008.7 992.1
17 20.09 З 4 20 км н/о +25.1 +14.8 53 +28 +28 жарко 1009.3 992.6
18 20.09 СЗ 1 20 км дымка н/о +23.6 +14.0 55 +26 +26 жарко 1009.9 993.1 +28.1
19 20.09 З 1 20 км н/о +22.1 +14.0 60 +25 +25 комфорт 1010.0 993.1
20 20.09 З 1 19 км н/о +20.4 +14.7 70 +25 +25 комфорт 1010.3 993.3
21 20.09 ЮВ 1 18 км н/о +18.9 +14.4 75 +22 +22 комфорт 1010.3 993.2
22 20.09 ЮВ 1 17 км н/о +17.8 +14.3 80 +19 +19 1010.6 993.4
23 20.09 З 1 15 км н/о +17.0 +14.1 83 +18 +18 1010.0 992.8
00 21.09 З 1 13 км н/о +16.1 +13.6 85 +17 +17 1010.1 992.8
01 21.09 ЮЗ 1 15 км н/о +16.2 +13.9 86 +18 +18 1009.8 992.6
02 21.09 З 1 19 км н/о +16.7 +13.6 82 +18 +18 1009.0 991.8
03 21.09 ЮВ 1 19 км н/о +17.2 +14.3 83 +19 +19 1008.2 991.0 0.0
04 21.09 Ю 1 20 км н/о +17.2 +14.1 82 +19 +19 1007.4 990.3
05 21.09 ЮВ 2 10 км слаб. дождь н/о +18.2 +13.9 76 +19 +19 1006.9 989.8 0.0
06 21.09 Ю 3 8000 м слаб. морось {дождь} н/о +19.3 +14.1 72 +21 +21 комфорт 1006.8 989.8 +16.0 0.0
07 21.09 Ю 2 8000 м слаб. морось н/о +19.0 +14.5 75 +21 +21 комфорт 1006.6 989.6 0.0
08 21.09 ЮВ 2 10 км слаб. морось с дождем н/о +19.2 +14.9 76 +21 +21 комфорт 1006.9 989.9 0.0
09 21.09 Ю 2 9000 м слаб. морось с дождем н/о +19.2 +15.5 79 +21 +21 комфорт 1007.3 990.3 0.0
10 21.09 ЮВ 2 20 км в посл. час дождь н/о +19.3 +16.0 81 +22 +22 комфорт 1006.8 989.8 0.4
11 21.09 ЮВ 1 6000 м слаб. морось с дождем н/о +20.2 +17.2 83 +24 +24 комфорт 1006.7 989.8 0.2
12 21.09 ЮВ 2 20 км в посл. час морось {дождь} н/о +20.5 +16.7 79 +24 +24 комфорт 1005.9 989.0 0.8
13 21.09 Ю 1 14 км дождь н/о +20.9 +17.1 79 +26 +26 душно 1005.7 988.8 0.0
14 21.09 С 1 20 км в посл. час морось н/о +20.2 +17.4 84 +24 +24 комфорт 1005.2 988.3 0.0
15 21.09 Ю 4 20 км н/о +21.3 +15.4 69 +24 +24 комфорт 1004.4 987.6 0.0
16 21.09 ЮЗ 4 16 км слаб. морось с дождем н/о +20.8 +16.2 75 +24 +24 комфорт 1004.7 987.8 0.2
17 21.09 ЮЗ 2 7000 м слаб. морось с дождем н/о +18.8 +16.4 86 +20 +20 1006.0 989.0 2
18 21.09 ЮЗ 3 20 км в посл. час морось {дождь} н/о +17.0 +13.7 81 +17 +17 1007.7 990.5 +21.5 3
19 21.09 ЮВ 2 20 км н/о +16.3 +13.4 83 +17 +17 1008.4 991.2
20 21.09 Ю 2 20 км н/о +15.4 +13.1 86 +16 +16 1008.9 991.6
21 21.09 Ю 1 20 км н/о +14.2 +11.9 86 +14 +14 1009.4 992.0
22 21.09 В 1 20 км н/о +14.4 +12.1 86 +15 +15 1009.9 992.5
23 21.09 Ю 1 20 км н/о +14.2 +12.1 87 +14 +14 1009.7 992.3
00 22.09 Ю 2 20 км н/о +14.3 +11.8 85 +14 +14 1010.1 992.7
01 22.09 ЮВ 2 18 км в посл. час морось н/о +14.5 +12.4 87 +14 +14 1010.3 992.9 0.0
02 22.09 Ю 2 20 км в посл. час морось н/о +14.9 +12.9 88 +15 +15 1010.6 993.3 0.0
03 22.09 ЮВ 2 20 км н/о +15.6 +12.3 81 +15 +15 1011.2 993.9 0.0
04 22.09 Ю 3 20 км н/о +15.4 +11.6 78 +15 +15 1011.6 994.3
05 22.09 Ю 2 20 км н/о +14.8 +11.4 80 +15 +15 1012.2 994.8
06 22.09 Ю 1 20 км дымка н/о +13.9 +10.7 81 +14 +14 1013.2 995.7 +13.9
07 22.09 Ю 2 20 км н/о +12.9 +10.1 83 +12 +12 1013.4 995.9
08 22.09 Ю 1 20 км н/о +14.0 +11.2 83 +14 +14 1014.2 996.7
09 22.09 Ю 2 20 км н/о +17.8 +10.9 64 +18 +18 1014.5 997.3 0.0
10 22.09 Ю 3 20 км н/о +19.8 +12.1 61 +22 +22 комфорт 1014.8 997.7
11 22.09 З 3 20 км н/о +20.8 +11.4 55 +23 +23 комфорт 1014.7 997.6
12 22.09 ЮЗ 3 20 км дымка н/о +21.5 +11.2 52 +23 +23 комфорт 1014.7 997.7
13 22.09 З 3 20 км в посл. час морось н/о +21.3 +11.9 55 +23 +23 комфорт 1014.9 997.9 0.0
14 22.09 З 4 20 км н/о +23.2 +11.3 47 +25 +25 комфорт 1014.5 997.6
15 22.09 Ю 4 20 км н/о +24.1 +11.8 46 +26 +26 жарко 1014.5 997.6 0.0
16 22.09 З 3 20 км н/о +23.1 +11.2 47 +25 +25 комфорт 1014.9 998.0
17 22.09 ЮЗ 3 20 км н/о +22.0 +11.4 51 +24 +24 комфорт 1015.7 998.7
18 22.09 ЮЗ 2 20 км дымка н/о +20.1 +9.9 52 +22 +22 комфорт 1016.4 999.2 +24.2
19 22.09 ЮВ 1 20 км н/о +18.2 +10.8 62 +20 +20 1016.9 999.6
20 22.09 ЮВ 2 20 км н/о +16.7 +10.8 68 +17 +17 1017.8 1000.4
21 22.09 Ю 1 20 км н/о +16.1 +11.0 72 +17 +17 1018.3 1000.9
22 22.09 Ю 1 20 км н/о +14.7 +11.1 79 +15 +15 1018.5 1001.0
23 22.09 ЮЗ 1 20 км н/о +13.9 +10.5 80 +15 +15 1019.0 1001.4
00 23.09 З 1 20 км н/о +13.2 +10.2 82 +13 +13 1019.0 1001.4
01 23.09 ЮВ 1 20 км н/о +12.9 +10.3 84 +14 +14 1019.0 1001.4
02 23.09 В 1 20 км н/о +12.2 +10.1 87 +13 +13 1019.4 1001.7
03 23.09 ЮВ 1 20 км н/о +11.9 +10.0 88 +13 +13 1019.1 1001.4
04 23.09 ЮЗ 1 20 км н/о +11.9 +9.8 87 +13 +13 1019.2 1001.5
05 23.09 ЮВ 1 20 км н/о +12.3 +10.2 87 +12 +12 1019.0 1001.3
06 23.09 З 1 20 км слаб. дождь 9/9 300 м
[Frnb]
+12.7 +10.4 86 +14 +14 1019.1 1001.5 +11.8
07 23.09 З 1 20 км н/о +13.0 +10.5 85 +14 +14 1019.6 1002.0
08 23.09 З 1 20 км н/о +14.2 +11.5 84 +15 +15 1019.7 1002.2
09 23.09 СЗ 1 20 км 9/3 600 м
[Sc Ac As]
+16.1 +11.7 75 +17 +18 1019.7 1002.3
10 23.09 СЗ 2 20 км н/о +18.5 +12.0 66 +20 +20 1019.5 1002.2
11 23.09 Ю 3 20 км н/о +20.7 +11.3 55 +23 +23 комфорт 1019.1 1001.9
12 23.09 Ю 3 20 км 9/4 300 м
[Cu Sc Ac As]
+21.1 +11.1 53 +23 +25 комфорт 1018.8 1001.7
13 23.09 Ю 3 20 км н/о +22.8 +11.5 49 +25 +25 комфорт 1018.0 1001.0
14 23.09 Ю 3 20 км н/о +23.6 +11.9 48 +25 +25 комфорт 1017.6 1000.6
15 23.09 З 2 20 км н/о +22.5 +12.7 54 +25 +25 комфорт 1017.8 1000.8
16 23.09 З 2 20 км н/о +22.1 +12.9 56 +25 +25 комфорт 1017.6 1000.6
17 23.09 З 1 20 км н/о +21.8 +12.9 57 +24 +24 комфорт 1017.4 1000.3
18 23.09 З 1 20 км н/о +21.6 +13.2 59 +24 +24 комфорт 1017.4 1000.3 +24.4 0.0
19 23.09 Ю 2 20 км н/о +20.9 +12.1 57 +24 +24 комфорт 1017.4 1000.3

 

Местоположение метеостанции Оренсе (Испания): широта 42.33 долгота -7.87 высота над уровнем моря 128 м.

В архиве по умолчанию представлена погода в Оренсе за последнюю неделю. Архивные данные за месяц целиком и за предыдущие месяцы, начиная с января 2011 года, Вы можете получить, выбрав интересующий диапазон дат из раскрывающегося списка и нажав кнопку "Ввод!".


*Определитесь, кто Вы:
робот инопланетянин человек

Внимание! Время в таблицах - всемирное. Для получения местного времени необходимо прибавить поправку, которая равна 1 ч.

Смотрите также архив погоды в соседних городах и на ближайших метеорологических станциях:

Погода в Карбальино (Испания) (21 км)
Погода в Хинсо-де-Лимии (Испания) (30 км)
Погода в Побра-де-Тривес-Сане (Испания) (49 км)
Погода в Понтеведре (Испания) (63 км)
Погода в Виго (Испания) (64 км)
Погода в Падроне (Испания) (77 км)
Погода в Сантьяго (Испания) (78 км)
Погода в Сантьяго-де-Компостеле (Испания) (83 км)
Погода в Луго (Испания) (94 км)
Погода в Понферраде (Испания) (108 км)

Пояснения к столбцам:

Ветер - указаны скорость ветра в м/с - средняя за 10 мин, порывы в срок и между сроками (в фигурных скобках) и направление, откуда дует ветер: С - северный, СВ - северо-восточный, В - восточный, ЮВ - юго-восточный, Ю - южный, ЮЗ - юго-западный, З - западный, СЗ - северо-западный.
Видимость - горизонтальная дальность видимости в метрах или километрах. При видимости от 1 до 10 км при отсутствии осадков обычно наблюдается дымка, при ухудшении видимости до 1 км и менее - туман. В сухую погоду видимость может ухудшаться дымом, пылью или мглою.
Явления - указаны атмосферные явления, наблюдавшиеся в срок или в последний час перед сроком; фигурными скобками обозначены явления, наблюдавшиеся между сроками (за 1-3 часа до срока); квадратными скобками обозначены град или гололедные отложения с указанием их диаметра в мм.
Облачность - указаны через наклонную черту общая и нижняя облачность в баллах и высота нижней границы облаков в метрах; квадратными скобками обозначены формы облаков: Ci - перистые, Cs - перисто-слоистые, Cc - перисто-кучевые, Ac - высококучевые, As - высокослоистые, Sc - слоисто-кучевые, Ns - слоисто-дождевые, Cu - кучевые, Cb - кучево-дождевые. Подробнее классификацию облаков см. в Атласе облаков (PDF).
T - Температура воздуха - температура, измеренная на высоте 2 м над землей.
Td - Температура точки росы - температура, при понижении до которой содержащийся в воздухе водяной пар достигнет насыщения.
f - Относительная влажность воздуха - влажноcть воздуха, измеренная на высоте 2 м над землей.
Te - Эффективная температура - температура, которую ощущает одетый по сезону человек в тени. Характеристика душности погоды. При расчете учитывается влияние влажности воздуха и скорости ветра на теплоощущения человека.
Tes - Эффективная температура на солнце - температура, которую ощущает человек, с поправкой на солнечный нагрев. Характеристика знойности погоды. Зависит от высоты солнца над горизонтом, облачности и скорости ветра. Ночью, в пасмурную погоду, а также при ветре 12 м/с и более поправка равна нулю.
P - Атмосферное давление - приведенное к уровню моря атмосферное давление.
Po - Атмосферное давление - измеренное на уровне метеостанции атмосферное давление.
Tmin - Минимальная температура - минимум температуры воздуха на высоте 2 м над землей.
Tmax - Максимальная температура - максимум температуры воздуха на высоте 2 м над землей.
R - Количество осадков - Количество выпавших осадков за период времени, мм. При наведении курсора мыши на число - период времени, за который выпало указанное количество осадков.
R24 - Количество осадков - Количество выпавших осадков за 24 часа, мм.
S - Снежный покров - Высота снежного покрова, см. При наведении курсора мыши на число - состояние снежного покрова и степень покрытия местности в баллах.